Location: Muenchen
(48.1800°N, 11.5800°E)
Time: 20:23:35
(UTC+02:00)

Cosmos 1455 - Visible Passes

Search period start: 26 May 2016 00:00
Search period end: 05 June 2016 00:00
Orbit: 505 x 529 km, 82.5° (Epoch: 26 May)

Date Brightness Start Highest point End Pass type
(mag) Time Alt. Az. Time Alt. Az. Time Alt. Az.
26 May 4.5 02:41:18 10° NNE 02:44:18 22° ENE 02:47:16 10° ESE visible
26 May 3.1 04:16:42 10° NNW 04:20:07 31° W 04:23:28 10° SSW visible
27 May 4.7 02:26:57 10° NNE 02:29:43 19° ENE 02:32:26 10° ESE visible
27 May 2.8 04:02:05 10° NNW 04:05:37 37° W 04:08:40 13° SSW visible
28 May 4.8 02:12:41 10° NNE 02:15:07 16° ENE 02:17:32 10° ESE visible
28 May 2.6 03:47:29 10° NNW 03:51:07 44° W 03:53:53 16° SSW visible
29 May 4.9 01:58:28 10° NNE 02:00:30 14° ENE 02:02:32 10° E visible
29 May 2.4 03:32:53 10° NNW 03:36:37 53° W 03:39:06 19° SSW visible
30 May 5.0 01:44:23 10° NE 01:45:53 12° ENE 01:47:24 10° E visible
30 May 2.2 03:18:19 10° NNW 03:22:06 64° W 03:24:21 22° S visible
31 May 5.2 01:30:46 10° NE 01:31:16 10° ENE 01:31:45 10° ENE visible
31 May 2.1 03:03:46 10° NNW 03:07:34 77° W 03:09:39 25° S visible
01 Jun 2.1 02:49:13 10° N 02:53:03 88° E 02:54:56 28° S visible
02 Jun 2.2 02:34:42 10° N 02:38:30 74° E 02:40:16 30° SSE visible
03 Jun 2.5 02:20:11 10° N 02:23:57 61° ENE 02:25:37 30° SSE visible
03 Jun 4.4 03:57:56 10° WNW 03:59:09 11° W 04:00:22 10° WSW visible
04 Jun 2.8 02:05:41 10° N 02:09:24 51° ENE 02:11:00 29° SE visible
04 Jun 4.3 03:42:49 10° NW 03:44:42 13° W 03:46:01 12° WSW visible
